Location: ?????????
(54.7630°N, 39.4991°E)
Time: 16:51:34
(UTC+00:00)

Cosmos 1825 Rocket - Pass Details

Date: 14 April 2026
Orbit: 596 x 623 km, 82.5° (Epoch: 16 May)

Event Time Altitude Azimuth Distance (km) Brightness Sun altitude
Rises 22:45:20 0° 349° (N) 2,865 7.9 -23.2°
Reaches altitude 10° 22:47:34 10° 351° (N) 1,955 6.9 -23.1°
Maximum altitude 22:51:53 75° 77° (ENE) 627 3.5 -22.9°
Enters shadow 22:52:27 63° 134° (SE) 671 3.5 -22.8°
